Weather History for Chapel Hill, NC

Change the Weather History Date:

Tuesday, February 19, 2013

  Actual Average Record
Temperature  
Mean Temperature 40 °F -  
Max Temperature 50 °F 50 °F 76 °F (1976)
Min Temperature 30 °F 30 °F 8 °F (1958)
Degree Days  
Heating Degree Days 25    
Moisture  
Dew Point 38 °F    
Average Humidity 84    
Maximum Humidity 93    
Minimum Humidity 57    
Precipitation  
Precipitation 0.23 in - - ()
Sea Level Pressure  
Sea Level Pressure 29.99 in    
Wind  
Wind Speed 3 mph (SW)    
Max Wind Speed 9 mph    
Max Gust Speed -    
Visibility 7 miles    
Events Rain    
Averages and records for this station are not official NWS values.
T = Trace of Precipitation, MM = Missing Value Source: NWS Daily Summary

Daily Weather History Graph

Daily Weather History Graph

Search for Another Location

Airport:

Trip Planner

Search our weather history database for the weather conditions in past years. The results will help you decide how hot, cold, wet, or windy it might be!

Date:

Astronomy

Feb. 19, 2013 Rise Set
Actual Time 6:58 AM EST 6:02 PM EST
Civil Twilight 6:32 AM EST 6:28 PM EST
Nautical Twilight 6:02 AM EST 6:57 PM EST
Astronomical Twilight 5:33 AM EST 7:27 PM EST
Moon 12:38 PM EST (2/19) 2:23 AM EST (2/19)
Length of Visible Light 11h 55m
Length of Day
11h 03m
Waxing Gibbous, 67% of the Moon is Illuminated
Feb 19
Waxing Gibbous
Feb 25
Full
Mar 4
Last Quarter
Mar 11
New
Mar 19
First Quarter

Hourly Weather History & Observations

Time (EST) Temp. Windchill Dew Point Humidity Pressure Visibility Wind Dir Wind Speed Gust Speed Precip Events Conditions
12:56 AM 37.9 °F - 24.1 °F 57% 30.24 in 10.0 mi Calm Calm - N/A   Clear
1:56 AM 35.1 °F 32.2 °F 24.1 °F 64% 30.22 in 10.0 mi Variable 3.5 mph - N/A   Clear
2:56 AM 30.9 °F - 24.1 °F 76% 30.19 in 10.0 mi Calm Calm - N/A   Partly Cloudy
3:56 AM 32.0 °F - 25.0 °F 75% 30.16 in 10.0 mi Calm Calm - N/A   Clear
5:56 AM 32.0 °F - 25.0 °F 75% 30.12 in 10.0 mi Calm Calm - N/A   Partly Cloudy
6:56 AM 33.1 °F - 27.0 °F 78% 30.10 in 10.0 mi Calm Calm - N/A   Partly Cloudy
7:56 AM 39.0 °F - 28.0 °F 65% 30.10 in 10.0 mi Calm Calm - N/A   Overcast
8:56 AM 42.1 °F - 30.9 °F 65% 30.08 in 10.0 mi Calm Calm - N/A   Overcast
9:56 AM 41.0 °F 39.0 °F 37.0 °F 86% 30.08 in 3.0 mi Variable 3.5 mph - 0.03 in Rain Rain
10:56 AM 42.1 °F - 39.0 °F 89% 30.04 in 6.0 mi Calm Calm - 0.06 in Rain Light Rain
11:56 AM 45.0 °F 41.8 °F 42.1 °F 90% 30.00 in 8.0 mi Variable 5.8 mph - 0.02 in   Overcast
12:07 PM 45.0 °F 40.6 °F 42.1 °F 90% 29.99 in 6.0 mi SSW 8.1 mph - 0.01 in   Overcast
12:25 PM 46.0 °F 41.9 °F 43.0 °F 89% 29.97 in 4.0 mi SSW 8.1 mph - 0.01 in Rain Light Rain
12:40 PM 46.0 °F 41.4 °F 44.1 °F 93% 29.96 in 2.5 mi SW 9.2 mph - 0.01 in Rain Light Rain
12:56 PM 46.9 °F - 44.1 °F 90% 29.94 in 2.0 mi SW 9.2 mph - 0.02 in Rain Light Rain
1:11 PM 48.0 °F - 45.0 °F 89% 29.93 in 1.8 mi Variable 6.9 mph - 0.01 in Rain Light Rain
1:56 PM 48.9 °F - 46.0 °F 90% 29.91 in 1.8 mi Variable 5.8 mph - 0.08 in Rain Light Rain
2:05 PM 48.9 °F - 46.0 °F 90% 29.90 in 2.0 mi SSW 9.2 mph - 0.01 in Rain Light Rain
2:16 PM 48.9 °F - 46.0 °F 90% 29.90 in 3.0 mi SW 8.1 mph - 0.01 in Rain Light Rain
2:21 PM 48.9 °F - 46.0 °F 90% 29.89 in 2.5 mi SW 8.1 mph - 0.01 in Rain Light Rain
2:30 PM 48.9 °F - 46.0 °F 90% 29.89 in 4.0 mi SW 9.2 mph - 0.02 in Rain Light Rain
2:43 PM 48.9 °F - 46.0 °F 90% 29.88 in 10.0 mi Variable 4.6 mph - 0.02 in   Overcast
2:56 PM 50.0 °F - 46.0 °F 86% 29.88 in 10.0 mi Variable 4.6 mph - 0.02 in   Overcast
3:56 PM 48.9 °F - 45.0 °F 86% 29.87 in 10.0 mi Variable 6.9 mph - N/A   Overcast
4:56 PM 48.9 °F - 44.1 °F 83% 29.87 in 10.0 mi North - - N/A   Overcast
5:56 PM 48.0 °F - 43.0 °F 83% 29.90 in 10.0 mi Variable 4.6 mph - N/A   Overcast
7:56 PM 45.0 °F 43.5 °F 41.0 °F 86% 29.94 in 10.0 mi Variable 3.5 mph - N/A   Partly Cloudy
9:56 PM 42.1 °F 40.2 °F 39.0 °F 89% 29.96 in 10.0 mi SW 3.5 mph - N/A   Clear
10:35 PM 39.0 °F - 37.0 °F 93% 29.96 in 1.8 mi Calm Calm - N/A   Clear
10:56 PM 39.9 °F - 37.0 °F 89% 29.96 in 2.0 mi Calm Calm - N/A   Clear
11:05 PM 39.9 °F - 37.9 °F 93% 29.96 in 7.0 mi Calm Calm - N/A   Clear
11:56 PM 37.9 °F 33.5 °F 35.1 °F 89% 29.97 in 10.0 mi WNW 5.8 mph - N/A   Clear